FW1482 Weather Reports


time (UTC)temp
C
wind
direction
speed
KPH
gust
KPH
rain 1hr
cm
rain 24hr
cm
rain mn
cm
humidity
%
barometer
mb
20260503004529 13 222 8.0 14.5 0.00 0.00 0.00 37 1018.0
20260503003055 14 232 11.3 16.1 0.00 0.00 0.00 36 1018.1
20260503001529 14 253 11.3 22.5 0.00 0.00 0.00 35 1018.2
20260503000042 15 243 12.9 22.5 0.00 0.00 0.00 34 1018.2
20260502234556 15 244 14.5 20.9 0.00 0.00 0.00 33 1018.4
20260502233007 15 267 16.1 22.5 0.00 0.00 0.00 32 1018.5
20260502231513 15 232 14.5 22.5 0.00 0.00 0.00 33 1018.6
20260502230029 15 255 11.3 22.5 0.00 0.00 0.00 32 1018.9
20260502224532 15 315 16.1 27.4 0.00 0.00 0.00 29 1018.9
20260502223059 15 294 14.5 25.7 0.00 0.00 0.00 30 1019.1
20260502221537 15 236 24.1 33.8 0.00 0.00 0.00 30 1019.3
20260502220058 15 275 16.1 27.4 0.00 0.00 0.00 31 1019.5
20260502214533 15 309 14.5 29.0 0.00 0.00 0.00 31 1019.6
20260502213006 15 230 12.9 27.4 0.00 0.00 0.00 32 1019.7
20260502211527 15 275 12.9 22.5 0.00 0.00 0.00 31 1019.8
20260502210115 15 259 14.5 27.4 0.00 0.00 0.00 31 1019.9
20260502204518 15 325 11.3 25.7 0.00 0.00 0.00 31 1020.0
20260502203040 14 245 3.2 22.5 0.00 0.00 0.00 32 1020.3
20260502201557 14 217 12.9 24.1 0.00 0.00 0.00 31 1020.5
20260502201503 14 221 12.9 24.1 0.00 0.00 0.00 31 1020.6
20260502200009 14 306 11.3 24.1 0.00 0.00 0.00 31 1020.7
20260502194520 13 273 8.0 20.9 0.00 0.00 0.00 32 1020.9
20260502193026 13 243 17.7 27.4 0.00 0.00 0.00 33 1021.2
20260502191550 13 283 11.3 27.4 0.00 0.00 0.00 32 1021.5
20260502190057 13 246 3.2 16.1 0.00 0.00 0.00 35 1021.6
20260502184518 13 271 8.0 24.1 0.00 0.00 0.00 34 1021.8
20260502183056 13 255 8.0 20.9 0.00 0.00 0.00 34 1021.9
20260502181518 13 269 11.3 24.1 0.00 0.00 0.00 34 1022.1
20260502163053 11 256 14.5 24.1 0.00 0.00 0.00 39 1023.1
20260502161623 11 258 9.7 20.9 0.00 0.00 0.00 39 1023.3
20260502151541 10 269 12.9 24.1 0.00 0.00 0.00 49 1023.7
20260502123031 2 283 1.6 4.8 0.00 0.00 0.00 84 1023.9
20260502121556 2 76 0.0 3.2 0.00 0.00 0.00 87 1023.7
20260502114541 0 86 0.0 0.0 0.00 0.00 0.00 90 1023.6
20260502113005 -1 86 0.0 0.0 0.00 0.00 0.00 89 1023.5
20260502111537 -2 86 0.0 0.0 0.00 0.00 0.00 87 1023.3
20260502110004 -2 86 0.0 0.0 0.00 0.00 0.00 87 1023.1
20260502104531 -1 86 0.0 0.0 0.00 0.00 0.00 86 1023.1
20260502103101 -1 86 0.0 0.0 0.00 0.00 0.00 87 1023.1
20260502101542 -1 86 0.0 0.0 0.00 0.00 0.00 85 1023.0
20260502091504 0 86 0.0 0.0 0.00 0.00 0.00 81 1022.8
20260502071511 1 78 0.0 1.6 0.00 0.00 0.00 70 1023.1
20260502070037 2 78 3.2 6.4 0.00 0.00 0.00 68 1023.1
20260502064556 2 79 4.8 8.0 0.00 0.00 0.00 68 1023.1
20260502063028 3 55 4.8 6.4 0.00 0.00 0.00 65 1023.1
20260502061544 3 46 1.6 6.4 0.00 0.00 0.00 62 1023.2
20260502060016 3 40 1.6 6.4 0.00 0.00 0.00 62 1023.1
20260502054542 3 34 4.8 6.4 0.00 0.00 0.00 61 1023.0
20260502053129 4 31 3.2 8.0 0.00 0.00 0.00 60 1023.0
20260502053002 4 31 3.2 8.0 0.00 0.00 0.00 60 1022.9
20260502051530 5 25 3.2 6.4 0.00 0.00 0.00 58 1022.9
20260502050052 5 19 4.8 8.0 0.00 0.00 0.00 58 1022.8
20260502044519 5 18 4.8 8.0 0.00 0.00 0.00 58 1022.7
20260502043043 5 24 4.8 8.0 0.00 0.00 0.00 57 1022.7
20260502041511 5 30 1.6 4.8 0.00 0.00 0.00 59 1022.5
20260502040043 5 30 1.6 4.8 0.00 0.00 0.00 57 1022.3
20260502034508 5 30 3.2 6.4 0.00 0.00 0.00 57 1022.4
20260502033027 6 30 3.2 6.4 0.00 0.00 0.00 56 1022.2
20260502031557 6 30 3.2 6.4 0.00 0.00 0.00 54 1022.0
20260502030025 6 34 3.2 9.7 0.00 0.00 0.00 53 1022.0
20260502024557 7 26 3.2 8.0 0.00 0.00 0.00 52 1021.9
20260502023024 7 9 1.6 6.4 0.00 0.00 0.00 51 1021.6
20260502021539 8 29 3.2 8.0 0.00 0.00 0.00 48 1021.4
20260502020007 8 13 3.2 9.7 0.00 0.00 0.00 46 1021.3
20260502014533 8 18 4.8 9.7 0.00 0.00 0.00 46 1021.1
20260502013002 8 13 3.2 9.7 0.00 0.00 0.00 46 1020.9
20260502011525 9 19 6.4 12.9 0.00 0.00 0.00 44 1020.7